[[{"header":{"parameterUnit":"m.s-1","parameterCategory":1,"la1":30.2991,"la2":30.254,"lo1":-89.0895,"lo2":-89.0444,"dy":0.0017,"dx":0.0017,"nx":28,"ny":28,"refTime":"2025-04-20T03:00:00:Z","depth":0,"parameterNumber":2,"parameterNumberName":"U-component_of_WINDS"},"data":[0,0,0,0,0,0,0,0,0,0,0,0,0,0,0,0,0,0,0,0,0,0,0,0,0,0,0,0,0,0,0,0,0,0,0,0,0,0,0,0,0,0,0,0,0,0,0,0,0,0,0,0,0,0,0,0,0,0,-2.4519,-2.4519,0,-2.453,-2.453,-2.453,-2.4507,-2.4507,-2.4506,-2.4505,-2.4516,-2.4517,-2.4518,0,0,0,0,0,0,0,0,0,0,0,0,0,-2.4479,-2.448,-2.4519,-2.4519,-2.4519,-2.453,-2.453,-2.453,-2.4507,-2.4507,-2.4506,-2.4505,-2.4516,-2.4517,-2.4518,0,0,0,0,0,0,0,0,0,0,0,0,0,-2.4494,-2.448,-2.4519,-2.4509,-2.4508,-2.453,-2.453,-2.453,-2.4508,-2.4507,-2.4505,-2.4504,-2.4516,-2.4517,-2.4519,-2.455,0,0,-2.4523,-2.4524,0,0,0,0,0,0,0,0,-2.4493,-2.4495,-2.451,-2.451,-2.4509,-2.4516,-2.452,-2.4537,-2.4508,-2.4508,-2.4505,-2.4504,-2.4517,-2.4518,-2.4523,-2.455,-2.4551,-2.4523,-2.4524,-2.4525,-2.4525,0,0,0,0,0,0,0,-2.4492,-2.4495,-2.4523,-2.451,-2.451,-2.4504,-2.4505,-2.4523,-2.4519,-2.4508,-2.4506,-2.4508,-2.4517,-2.4522,-2.4523,-2.4551,-2.4523,-2.4524,-2.4525,-2.4526,-2.4606,-2.4607,0,0,0,0,0,0,-2.4492,-2.4494,-2.4523,-2.4523,-2.4498,-2.4506,-2.4507,-2.4515,-2.4518,-2.4518,-2.4509,-2.4507,-2.452,-2.4521,-2.4523,-2.456,-2.4525,-2.4526,-2.4527,-2.4605,-2.4606,-2.4607,0,0,0,0,0,0,-2.4491,-2.4495,-2.4522,-2.4508,-2.4511,-2.4508,-2.4517,-2.4516,-2.4521,-2.4519,-2.4518,-2.4515,-2.4519,-2.4521,-2.4544,-2.456,-2.4527,-2.4528,-2.4603,-2.4605,-2.4607,-2.4634,0,0,0,0,0,0,-2.449,-2.4495,-2.4506,-2.4509,-2.4512,-2.4542,-2.4518,-2.4517,-2.4523,-2.4521,-2.4524,-2.4524,-2.4518,-2.4542,-2.4545,-2.4561,-2.4529,-2.4602,-2.4604,-2.4606,-2.4631,-2.4636,-2.4641,0,0,0,0,0,-2.4489,-2.4513,-2.4507,-2.451,-2.4526,-2.4543,-2.4545,-2.4538,-2.4525,-2.4536,-2.4536,-2.4524,-2.4558,-2.4544,-2.4548,-2.4565,-2.46,-2.4603,-2.4606,-2.4629,-2.4635,-2.464,0,0,0,0,0,0,-2.4511,-2.4513,-2.4506,-2.4532,-2.4537,-2.4539,-2.4553,-2.4544,-2.4554,-2.4551,-2.4542,-2.4543,-2.4567,-2.4569,-2.4553,-2.4596,-2.4577,-2.4581,-2.4594,-2.4599,-2.4604,-2.4602,-2.4531,0,0,0,0,0,-2.452,-2.4533,-2.4534,-2.4556,-2.456,-2.4556,-2.4563,-2.4558,-2.4563,-2.4565,-2.4566,-2.4572,-2.4584,-2.4592,-2.4603,-2.4633,-2.4633,-2.4646,-2.4651,-2.4655,-2.4657,-2.4673,-2.4679,-2.4617,-2.4617,-2.4616,0,0,-2.4536,-2.4539,-2.4547,-2.4561,-2.4565,-2.4579,-2.4558,-2.4574,-2.4584,-2.4567,-2.4588,-2.459,-2.4596,-2.4622,-2.4633,-2.4624,-2.4675,-2.4658,-2.4661,-2.4662,-2.4677,-2.4682,-2.4688,-2.4618,-2.4618,-2.4618,0,0,-2.4573,-2.4577,-2.4596,-2.4601,-2.4607,-2.4605,-2.461,-2.4613,-2.4613,-2.4635,-2.4623,-2.4636,-2.4657,-2.4662,-2.4667,-2.4709,-2.4698,-2.4713,-2.4736,-2.4752,-2.4757,-2.4761,-2.4775,-2.478,-2.4716,-2.4716,-2.4716,0,-2.4592,-2.4613,-2.4607,-2.4623,-2.463,-2.4617,-2.4636,-2.4641,-2.4651,-2.4656,-2.4646,-2.4673,-2.4676,-2.4703,-2.4713,-2.4719,-2.4724,-2.4711,-2.4756,-2.4761,-2.4765,-2.4778,-2.4783,-2.4718,-2.4718,-2.4718,-2.4718,0,-2.4636,-2.4651,-2.4666,-2.4676,-2.4684,-2.4702,-2.4699,-2.4709,-2.4704,-2.4703,-2.4726,-2.473,-2.4742,-2.4748,-2.4743,-2.4775,-2.4769,-2.4758,-2.4738,-2.4772,-2.4784,-2.479,-2.472,-2.472,-2.4719,-2.4719,0,0,-2.4684,-2.4693,-2.4698,-2.4703,-2.471,-2.4721,-2.474,-2.4752,-2.476,-2.4769,-2.4783,-2.4803,-2.4793,-2.48,-2.4795,-2.4809,-2.4842,-2.4796,-2.4797,-2.4803,-2.4877,-2.4883,-2.4889,-2.4836,-2.4837,-2.4838,-2.4876,0,-2.472,-2.475,-2.4747,-2.4776,-2.479,-2.478,-2.4796,-2.4802,-2.4803,-2.4815,-2.4816,-2.483,-2.4816,-2.482,-2.4834,-2.4835,-2.4856,-2.4832,-2.4849,-2.4849,-2.4845,-2.4896,-2.4903,-2.4938,-2.4881,-2.4881,-2.4882,0,-2.4764,-2.4774,-2.4805,-2.4812,-2.4818,-2.4832,-2.4843,-2.4855,-2.4863,-2.4863,-2.4871,-2.4865,-2.4884,-2.4867,-2.4893,-2.4877,-2.4884,-2.4886,-2.4887,-2.4886,-2.4866,-2.4895,-2.4949,-2.4954,-2.489,-2.4889,-2.4889,0,-2.4794,-2.4816,-2.4838,-2.4843,-2.4851,-2.4861,-2.4865,-2.4872,-2.4881,-2.4891,-2.4896,-2.4909,-2.4916,-2.4926,-2.4924,-2.4912,-2.4951,-2.4933,-2.495,-2.4951,-2.4957,-2.4956,-2.5011,-2.4965,-2.4965,-2.4965,-2.4965,0,-2.4833,-2.4852,-2.4852,-2.4865,-2.4886,-2.4883,-2.4905,-2.4907,-2.4914,-2.4928,-2.4921,-2.4934,-2.4931,-2.4944,-2.4943,-2.4965,-2.4968,-2.4968,-2.4967,-2.4968,-2.4968,-2.497,-2.4967,-2.4966,-2.4966,-2.4966,-2.4966,0,-2.4869,-2.487,-2.4892,-2.4899,-2.4902,-2.4917,-2.4923,-2.4936,-2.4937,-2.4955,-2.4959,-2.4961,-2.4976,-2.4976,-2.4994,-2.4993,-2.5019,-2.5017,-2.5016,-2.5015,-2.5032,-2.503,-2.5089,-2.5097,-2.5048,-2.5048,-2.5048,0,-2.4892,-2.4907,-2.4916,-2.4925,-2.493,-2.4944,-2.4953,-2.4951,-2.496,-2.4972,-2.4983,-2.4998,-2.501,-2.5036,-2.5039,-2.5052,-2.5049,-2.5069,-2.5051,-2.5051,-2.5047,-2.5046,-2.5047,-2.5072,-2.5072,-2.5073,-2.5073,0,-2.4934,-2.4934,-2.4946,-2.496,-2.497,-2.498,-2.499,-2.4998,-2.4998,-2.5009,-2.5025,-2.5034,-2.5053,-2.5068,-2.5081,-2.5086,-2.5079,-2.5079,-2.5084,-2.5083,-2.5082,-2.5082,-2.5024,-2.5077,-2.5077,-2.5076,-2.5076,-2.5076,-2.4963,-2.4975,-2.4984,-2.4999,-2.5006,-2.5016,-2.5028,-2.5032,-2.5045,-2.506,-2.5059,-2.5077,-2.5087,-2.5104,-2.5111,-2.5125,-2.5118,-2.5124,-2.5126,-2.5127,-2.5128,-2.5082,-2.5128,-2.5128,-2.5127,-2.5127,-2.5127,0,-2.5002,-2.5008,-2.5022,-2.5036,-2.5048,-2.5042,-2.5053,-2.5063,-2.5079,-2.5089,-2.5101,-2.512,-2.5135,-2.5141,-2.5155,-2.5166,-2.5163,-2.517,-2.5168,-2.5169,-2.5134,-2.5128,-2.5171,-2.5171,-2.5171,-2.5171,-2.5171,-2.5171,-2.5024,-2.5045,-2.5047,-2.5072,-2.5078,-2.5095,-2.5102,-2.5111,-2.5119,-2.514,-2.5153,-2.5157,-2.5165,-2.5181,-2.5195,-2.5196,-2.5201,-2.5209,-2.5209,-2.5176,-2.5171,-2.5167,-2.5161,-2.521,-2.521,-2.5242,-2.5242,-2.5242]},{"header":{"parameterUnit":"m.s-1","parameterCategory":1,"la1":30.2991,"la2":30.254,"lo1":-89.0895,"lo2":-89.0444,"dy":0.0017,"dx":0.0017,"nx":28,"ny":28,"refTime":"2025-04-20T03:00:00:Z","depth":0,"parameterNumber":3,"parameterNumberName":"V-component_of_WINDS"},"data":[0,0,0,0,0,0,0,0,0,0,0,0,0,0,0,0,0,0,0,0,0,0,0,0,0,0,0,0,0,0,0,0,0,0,0,0,0,0,0,0,0,0,0,0,0,0,0,0,0,0,0,0,0,0,0,0,0,0,2.9767,2.9766,0,2.9758,2.9758,2.9758,2.9775,2.9776,2.9776,2.9777,2.9765,2.9764,2.9763,0,0,0,0,0,0,0,0,0,0,0,0,0,2.9796,2.9796,2.9767,2.9766,2.9766,2.9758,2.9758,2.9758,2.9775,2.9776,2.9777,2.9777,2.9765,2.9764,2.9763,0,0,0,0,0,0,0,0,0,0,0,0,0,2.9785,2.9795,2.9767,2.9774,2.9775,2.9758,2.9758,2.9758,2.9775,2.9776,2.9777,2.9778,2.9765,2.9764,2.9763,2.9737,0,0,2.9759,2.9758,0,0,0,0,0,0,0,0,2.9786,2.9784,2.9773,2.9774,2.9774,2.9769,2.9764,2.9751,2.9775,2.9775,2.9777,2.9778,2.9765,2.9764,2.976,2.9737,2.9736,2.9759,2.9758,2.9757,2.9757,0,0,0,0,0,0,0,2.9786,2.9784,2.9763,2.9773,2.9774,2.9777,2.9777,2.9762,2.9765,2.9775,2.9776,2.9775,2.9765,2.9761,2.976,2.9736,2.9759,2.9757,2.9757,2.9756,2.9695,2.9694,0,0,0,0,0,0,2.9787,2.9785,2.9763,2.9763,2.9782,2.9776,2.9776,2.977,2.9765,2.9766,2.9774,2.9776,2.9763,2.9762,2.976,2.9732,2.9757,2.9756,2.9755,2.9696,2.9695,2.9694,0,0,0,0,0,0,2.9787,2.9785,2.9764,2.9774,2.9772,2.9775,2.9768,2.9769,2.9765,2.9765,2.9765,2.977,2.9764,2.9761,2.9744,2.9732,2.9755,2.9754,2.9697,2.9696,2.9694,2.9675,0,0,0,0,0,0,2.9788,2.9785,2.9775,2.9774,2.9771,2.9748,2.9767,2.9768,2.9763,2.9765,2.9761,2.9761,2.9764,2.9746,2.9743,2.973,2.9753,2.9698,2.9696,2.9695,2.9677,2.9673,2.967,0,0,0,0,0,2.9789,2.9768,2.9774,2.9772,2.976,2.9747,2.9746,2.9751,2.9762,2.9753,2.9753,2.9761,2.9734,2.9744,2.974,2.9727,2.9699,2.9697,2.9695,2.9678,2.9674,2.967,0,0,0,0,0,0,2.9765,2.9768,2.9775,2.9753,2.9751,2.975,2.9738,2.9746,2.9739,2.9741,2.9747,2.9746,2.9728,2.9726,2.9737,2.9705,2.9718,2.9715,2.9706,2.9702,2.9699,2.97,2.9752,0,0,0,0,0,2.9758,2.9749,2.9751,2.9732,2.9731,2.9735,2.973,2.9735,2.9731,2.973,2.9729,2.9724,2.9715,2.9709,2.97,2.9677,2.9677,2.9667,2.9663,2.9661,2.9658,2.9648,2.9644,2.9688,2.9688,2.9688,0,0,2.9742,2.9743,2.9736,2.9728,2.9726,2.9716,2.9733,2.9721,2.9715,2.9727,2.9712,2.9711,2.9707,2.9687,2.9678,2.9685,2.9647,2.9658,2.9656,2.9655,2.9646,2.9642,2.9638,2.9687,2.9687,2.9687,0,0,2.9708,2.9707,2.9693,2.9691,2.969,2.9693,2.969,2.9689,2.969,2.9675,2.9685,2.9677,2.966,2.9658,2.9654,2.9623,2.9631,2.962,2.9603,2.9593,2.959,2.9587,2.9577,2.9574,2.9618,2.9618,2.9618,0,2.9688,2.9675,2.9683,2.9672,2.9669,2.9683,2.9669,2.9666,2.9661,2.9658,2.9666,2.9648,2.9646,2.9627,2.962,2.9617,2.9613,2.962,2.959,2.9587,2.9584,2.9575,2.9572,2.9617,2.9617,2.9617,2.9617,0,2.9651,2.9642,2.963,2.9627,2.9623,2.961,2.9617,2.9611,2.9618,2.9621,2.9606,2.9605,2.9597,2.9593,2.9598,2.9576,2.958,2.9589,2.9603,2.9579,2.9571,2.9567,2.9615,2.9615,2.9616,2.9616,0,0,2.9599,2.9605,2.96,2.9601,2.9601,2.9594,2.9583,2.9577,2.9573,2.957,2.9561,2.9548,2.9558,2.9554,2.9559,2.955,2.9529,2.956,2.956,2.9555,2.9506,2.95,2.9496,2.9534,2.9534,2.9533,2.9507,0,2.9567,2.9549,2.9558,2.9538,2.9531,2.9546,2.9536,2.9536,2.9539,2.9533,2.9536,2.9528,2.954,2.9538,2.9531,2.9533,2.9519,2.9535,2.9526,2.9526,2.9527,2.9491,2.9484,2.946,2.9504,2.9503,2.9503,0,2.9526,2.9524,2.9505,2.951,2.9507,2.9498,2.9496,2.949,2.949,2.9493,2.9491,2.9499,2.9489,2.9503,2.949,2.95,2.9497,2.9499,2.9498,2.9497,2.9513,2.949,2.9452,2.9448,2.9498,2.9498,2.9498,0,2.9493,2.9485,2.9473,2.9472,2.9477,2.9471,2.9473,2.9475,2.9472,2.947,2.9468,2.9464,2.9462,2.9459,2.9466,2.9475,2.9452,2.9466,2.9454,2.9454,2.9448,2.9448,2.9409,2.9446,2.9446,2.9446,2.9446,0,2.9456,2.9443,2.9458,2.9451,2.9438,2.9449,2.9436,2.9439,2.9441,2.9435,2.9447,2.9441,2.9451,2.9445,2.9451,2.944,2.9438,2.9441,2.9443,2.944,2.944,2.9438,2.944,2.9445,2.9445,2.9445,2.9445,0,2.9415,2.9424,2.9413,2.942,2.9422,2.9412,2.9418,2.9412,2.9418,2.941,2.9408,2.9416,2.9412,2.9419,2.9414,2.9418,2.9403,2.9407,2.9403,2.9405,2.9393,2.9394,2.9351,2.9347,2.9386,2.9385,2.9385,0,2.9391,2.9382,2.939,2.9388,2.9389,2.9385,2.9383,2.9395,2.9392,2.9395,2.9388,2.9385,2.9383,2.9374,2.9379,2.9376,2.938,2.9366,2.938,2.9379,2.9381,2.9382,2.9382,2.9362,2.9362,2.9362,2.9361,0,2.9347,2.9354,2.9351,2.9352,2.935,2.935,2.9351,2.9348,2.9361,2.9358,2.9354,2.9353,2.935,2.9347,2.9346,2.9347,2.9356,2.9357,2.9355,2.9352,2.9351,2.9353,2.9396,2.9358,2.9358,2.9358,2.9359,2.9359,2.9315,2.9309,2.9315,2.9313,2.9315,2.9317,2.9313,2.9319,2.9316,2.9316,2.9323,2.9318,2.9322,2.9322,2.9323,2.9319,2.9326,2.9321,2.932,2.9319,2.9318,2.9352,2.9319,2.9319,2.9319,2.9319,2.9319,0,2.9273,2.9279,2.9277,2.928,2.9278,2.929,2.9292,2.929,2.9287,2.929,2.9289,2.9286,2.9283,2.929,2.9289,2.9285,2.9289,2.9284,2.9285,2.9285,2.9311,2.9315,2.9281,2.9281,2.9281,2.9281,2.9281,2.9281,2.9251,2.9243,2.925,2.9244,2.9249,2.9246,2.9247,2.9249,2.9252,2.9249,2.9248,2.9253,2.9258,2.9258,2.9257,2.9259,2.9258,2.9252,2.9255,2.9279,2.9283,2.9287,2.929,2.9251,2.9251,2.923,2.9229,2.9229]}]]